[[{"header":{"parameterUnit":"m.s-1","parameterCategory":1,"la1":30.2991,"la2":30.254,"lo1":-89.0895,"lo2":-89.0444,"dx":0.0017,"dy":0.0017,"nx":28,"ny":28,"refTime":"2023-01-09T03:00:00:Z","depth":0,"parameterNumber":2,"parameterNumberName":"U-component_of_WINDS"},"data":[0,0,0,0,0,0,0,0,0,0,0,0,0,0,0,0,0,0,0,0,0,0,0,0,0,0,0,0,0,0,0,0,0,0,0,0,0,0,0,0,0,0,0,0,0,0,0,0,0,0,0,0,0,0,0,0,0,0,-0.2064,-0.2064,0,-0.2047,-0.2047,-0.2046,-0.2028,-0.2028,-0.2028,-0.2028,-0.201,-0.201,-0.201,0,0,0,0,0,0,0,0,0,0,0,0,0,-0.208,-0.208,-0.2064,-0.2064,-0.2063,-0.2047,-0.2047,-0.2046,-0.2028,-0.2028,-0.2028,-0.2027,-0.2011,-0.201,-0.201,0,0,0,0,0,0,0,0,0,0,0,0,0,-0.2069,-0.2079,-0.2064,-0.2052,-0.2051,-0.2047,-0.2047,-0.2046,-0.2028,-0.2028,-0.2028,-0.2027,-0.2011,-0.201,-0.201,-0.2016,0,0,-0.2009,-0.2009,0,0,0,0,0,0,0,0,-0.2069,-0.2068,-0.2054,-0.2053,-0.2052,-0.2039,-0.2046,-0.2036,-0.2029,-0.2037,-0.2028,-0.2027,-0.202,-0.2019,-0.2017,-0.2015,-0.2014,-0.2009,-0.2009,-0.2009,-0.2009,0,0,0,0,0,0,0,-0.207,-0.2069,-0.2057,-0.2054,-0.2053,-0.2048,-0.2046,-0.2044,-0.2031,-0.2036,-0.2035,-0.2033,-0.202,-0.2017,-0.2016,-0.2014,-0.2009,-0.2009,-0.2008,-0.2008,-0.2015,-0.2015,0,0,0,0,0,0,-0.2073,-0.207,-0.2058,-0.2057,-0.206,-0.2048,-0.2046,-0.2044,-0.2031,-0.2029,-0.2034,-0.2032,-0.2018,-0.2017,-0.2016,-0.2021,-0.2009,-0.2008,-0.2008,-0.2014,-0.2015,-0.2015,0,0,0,0,0,0,-0.2073,-0.2072,-0.2058,-0.2063,-0.2061,-0.2048,-0.2046,-0.2044,-0.2041,-0.2029,-0.2027,-0.2034,-0.2018,-0.2016,-0.2016,-0.202,-0.2008,-0.2008,-0.2014,-0.2015,-0.2015,-0.2033,0,0,0,0,0,0,-0.2074,-0.2072,-0.2075,-0.2063,-0.206,-0.2059,-0.2046,-0.2044,-0.2041,-0.2039,-0.2028,-0.2026,-0.2017,-0.2016,-0.2015,-0.202,-0.2008,-0.2014,-0.2014,-0.2015,-0.2032,-0.2034,-0.2036,0,0,0,0,0,-0.2074,-0.208,-0.2075,-0.2073,-0.2063,-0.2059,-0.2058,-0.2047,-0.2041,-0.2043,-0.2035,-0.2027,-0.202,-0.2016,-0.2015,-0.202,-0.2013,-0.2014,-0.2015,-0.2031,-0.2033,-0.2036,0,0,0,0,0,0,-0.2093,-0.2079,-0.2072,-0.2075,-0.2068,-0.2056,-0.2059,-0.2051,-0.2046,-0.2045,-0.2032,-0.2029,-0.203,-0.2025,-0.2021,-0.2024,-0.2015,-0.2016,-0.2028,-0.203,-0.2032,-0.2034,-0.2007,0,0,0,0,0,-0.2098,-0.2096,-0.2083,-0.2087,-0.2084,-0.2072,-0.207,-0.2062,-0.2055,-0.2052,-0.2044,-0.2037,-0.2033,-0.2031,-0.2027,-0.203,-0.2028,-0.2033,-0.2035,-0.2036,-0.2037,-0.2038,-0.204,-0.2018,-0.2018,-0.2018,0,0,-0.2107,-0.2099,-0.2099,-0.209,-0.2084,-0.2082,-0.207,-0.2068,-0.2067,-0.2052,-0.2051,-0.2044,-0.2036,-0.2037,-0.2037,-0.2033,-0.2043,-0.2037,-0.2039,-0.2039,-0.2039,-0.2041,-0.2043,-0.2018,-0.2018,-0.2018,0,0,-0.2123,-0.2117,-0.2119,-0.2113,-0.2104,-0.2096,-0.2096,-0.2085,-0.208,-0.2078,-0.2067,-0.2064,-0.2058,-0.2053,-0.2049,-0.2061,-0.2053,-0.206,-0.2071,-0.2072,-0.2073,-0.2075,-0.2079,-0.2081,-0.2061,-0.2061,-0.2061,0,-0.2136,-0.2133,-0.2121,-0.212,-0.2117,-0.2102,-0.2104,-0.2098,-0.2089,-0.2086,-0.2081,-0.2073,-0.2066,-0.2065,-0.2068,-0.2066,-0.2065,-0.2062,-0.2074,-0.2076,-0.2077,-0.2081,-0.2082,-0.2062,-0.2062,-0.2062,-0.2062,0,-0.2149,-0.2147,-0.215,-0.214,-0.2137,-0.2137,-0.2125,-0.2122,-0.2114,-0.2107,-0.2105,-0.2096,-0.209,-0.2089,-0.2081,-0.2087,-0.2084,-0.2077,-0.2068,-0.208,-0.2084,-0.2085,-0.2063,-0.2063,-0.2063,-0.2062,0,0,-0.2178,-0.2161,-0.2162,-0.2157,-0.2146,-0.2144,-0.2143,-0.2136,-0.2135,-0.2128,-0.2127,-0.2121,-0.2114,-0.211,-0.2101,-0.2102,-0.2111,-0.2094,-0.2094,-0.2098,-0.2117,-0.2123,-0.2125,-0.2105,-0.2106,-0.2106,-0.2117,0,-0.2193,-0.2191,-0.2179,-0.2181,-0.2179,-0.2164,-0.2163,-0.2156,-0.2148,-0.2144,-0.2135,-0.2132,-0.2122,-0.212,-0.2119,-0.211,-0.2115,-0.2109,-0.2104,-0.2104,-0.2108,-0.2127,-0.2133,-0.2145,-0.2119,-0.2119,-0.2119,0,-0.221,-0.2204,-0.2205,-0.2192,-0.2191,-0.2191,-0.2183,-0.218,-0.2171,-0.2165,-0.2159,-0.2149,-0.2147,-0.2138,-0.2134,-0.2131,-0.2128,-0.2123,-0.2123,-0.2123,-0.2113,-0.2127,-0.2148,-0.215,-0.2121,-0.2121,-0.2121,0,-0.2232,-0.2223,-0.2223,-0.2219,-0.2204,-0.2204,-0.2198,-0.2188,-0.2185,-0.2178,-0.2175,-0.2168,-0.2165,-0.2159,-0.2147,-0.2142,-0.2145,-0.2135,-0.214,-0.214,-0.2142,-0.2143,-0.2164,-0.2139,-0.2139,-0.2139,-0.2139,0,-0.2249,-0.2251,-0.2232,-0.2232,-0.2233,-0.2219,-0.222,-0.2212,-0.2203,-0.2201,-0.2187,-0.2185,-0.217,-0.2166,-0.2156,-0.2154,-0.2153,-0.2148,-0.2146,-0.215,-0.215,-0.2148,-0.2147,-0.214,-0.214,-0.214,-0.2139,0,-0.2274,-0.2262,-0.226,-0.2246,-0.2242,-0.2243,-0.2231,-0.223,-0.222,-0.2218,-0.2216,-0.2202,-0.2196,-0.2183,-0.2174,-0.2168,-0.2169,-0.2164,-0.2172,-0.2171,-0.2177,-0.2176,-0.2197,-0.2199,-0.2174,-0.2174,-0.2174,0,-0.2287,-0.2288,-0.2273,-0.227,-0.2265,-0.2261,-0.2257,-0.2242,-0.2238,-0.2227,-0.2227,-0.222,-0.2214,-0.2206,-0.2195,-0.2187,-0.2183,-0.219,-0.2182,-0.2185,-0.2183,-0.2183,-0.2183,-0.2193,-0.2193,-0.2194,-0.2194,0,-0.2311,-0.2304,-0.2299,-0.2292,-0.2287,-0.2281,-0.2273,-0.2272,-0.2255,-0.2252,-0.2246,-0.2241,-0.2231,-0.2225,-0.2215,-0.2208,-0.2198,-0.2196,-0.2197,-0.2202,-0.2207,-0.2204,-0.2178,-0.2196,-0.2196,-0.2196,-0.2196,-0.2196,-0.233,-0.233,-0.2319,-0.2314,-0.2306,-0.2299,-0.2297,-0.2287,-0.2282,-0.2273,-0.2265,-0.2259,-0.2249,-0.2235,-0.2229,-0.2224,-0.2219,-0.222,-0.2221,-0.2221,-0.2223,-0.2206,-0.2222,-0.2222,-0.2222,-0.2222,-0.2222,0,-0.2354,-0.2346,-0.2341,-0.2331,-0.2326,-0.2316,-0.2307,-0.2304,-0.2299,-0.229,-0.2284,-0.2276,-0.2269,-0.2257,-0.2249,-0.2247,-0.2242,-0.2246,-0.2246,-0.2244,-0.2228,-0.2228,-0.225,-0.225,-0.225,-0.225,-0.225,-0.225,-0.2366,-0.2364,-0.2356,-0.2351,-0.2343,-0.2337,-0.2333,-0.2326,-0.2319,-0.2311,-0.2305,-0.2296,-0.2286,-0.2276,-0.2269,-0.2265,-0.2263,-0.2268,-0.2263,-0.2248,-0.2246,-0.2243,-0.2243,-0.2268,-0.2268,-0.228,-0.228,-0.228]},{"header":{"parameterUnit":"m.s-1","parameterCategory":1,"la1":30.2991,"la2":30.254,"lo1":-89.0895,"lo2":-89.0444,"dx":0.0017,"dy":0.0017,"nx":28,"ny":28,"refTime":"2023-01-09T03:00:00:Z","depth":0,"parameterNumber":3,"parameterNumberName":"V-component_of_WINDS"},"data":[0,0,0,0,0,0,0,0,0,0,0,0,0,0,0,0,0,0,0,0,0,0,0,0,0,0,0,0,0,0,0,0,0,0,0,0,0,0,0,0,0,0,0,0,0,0,0,0,0,0,0,0,0,0,0,0,0,0,-5.2795,-5.2796,0,-5.288,-5.2881,-5.2882,-5.2832,-5.283,-5.2827,-5.2825,-5.2907,-5.2911,-5.2916,0,0,0,0,0,0,0,0,0,0,0,0,0,-5.2584,-5.2588,-5.2795,-5.2796,-5.2797,-5.288,-5.2881,-5.2882,-5.2833,-5.283,-5.2827,-5.2824,-5.2906,-5.2911,-5.2916,0,0,0,0,0,0,0,0,0,0,0,0,0,-5.2673,-5.259,-5.2794,-5.2782,-5.2782,-5.288,-5.2881,-5.2882,-5.2833,-5.283,-5.2826,-5.2823,-5.2904,-5.291,-5.2917,-5.303,0,0,-5.2937,-5.294,0,0,0,0,0,0,0,0,-5.2668,-5.2681,-5.2783,-5.2783,-5.2783,-5.2842,-5.2837,-5.2932,-5.2834,-5.2814,-5.2825,-5.2821,-5.2888,-5.2896,-5.2919,-5.3034,-5.3037,-5.2938,-5.2942,-5.2945,-5.2947,0,0,0,0,0,0,0,-5.2662,-5.2677,-5.2828,-5.2784,-5.2785,-5.2771,-5.278,-5.2855,-5.287,-5.2815,-5.2812,-5.2823,-5.2887,-5.2913,-5.2921,-5.3039,-5.2938,-5.2944,-5.2948,-5.295,-5.3251,-5.3255,0,0,0,0,0,0,-5.2657,-5.2672,-5.2825,-5.2831,-5.2716,-5.2778,-5.2787,-5.2826,-5.2869,-5.2872,-5.2826,-5.282,-5.2904,-5.2913,-5.2924,-5.306,-5.2945,-5.2951,-5.2955,-5.3247,-5.3252,-5.3256,0,0,0,0,0,0,-5.2653,-5.2672,-5.2822,-5.2751,-5.2769,-5.2785,-5.283,-5.283,-5.2856,-5.2877,-5.2879,-5.285,-5.2901,-5.2914,-5.3005,-5.3062,-5.2954,-5.296,-5.3242,-5.3248,-5.3254,-5.3333,0,0,0,0,0,0,-5.2647,-5.267,-5.2714,-5.2752,-5.2773,-5.2903,-5.2833,-5.2834,-5.2868,-5.2862,-5.29,-5.2903,-5.2899,-5.2995,-5.3011,-5.3069,-5.2965,-5.3237,-5.3245,-5.3252,-5.3325,-5.3341,-5.3354,0,0,0,0,0,-5.264,-5.2731,-5.2717,-5.2736,-5.2828,-5.2906,-5.2918,-5.2914,-5.2873,-5.2917,-5.2931,-5.2902,-5.3053,-5.3005,-5.3022,-5.3083,-5.3234,-5.3243,-5.3252,-5.3318,-5.3338,-5.3354,0,0,0,0,0,0,-5.2698,-5.2736,-5.272,-5.2827,-5.2864,-5.2898,-5.2953,-5.2934,-5.2982,-5.2973,-5.2964,-5.2973,-5.3068,-5.3084,-5.303,-5.3195,-5.3137,-5.315,-5.3181,-5.32,-5.3214,-5.3208,-5.2971,0,0,0,0,0,-5.2723,-5.2785,-5.2814,-5.2906,-5.2926,-5.2937,-5.297,-5.2964,-5.3001,-5.3016,-5.3036,-5.3072,-5.3128,-5.3164,-5.3217,-5.3327,-5.3335,-5.3378,-5.3392,-5.3404,-5.3415,-5.3476,-5.3495,-5.3286,-5.3286,-5.3286,0,0,-5.2776,-5.2805,-5.2844,-5.2918,-5.2946,-5.301,-5.295,-5.3018,-5.3065,-5.3026,-5.3113,-5.3129,-5.3168,-5.327,-5.3315,-5.3286,-5.3475,-5.3415,-5.3425,-5.343,-5.3487,-5.3507,-5.3525,-5.3292,-5.3291,-5.329,0,0,-5.2904,-5.2932,-5.3012,-5.3042,-5.3087,-5.3093,-5.3113,-5.315,-5.316,-5.3248,-5.322,-5.3274,-5.337,-5.34,-5.3428,-5.357,-5.3545,-5.3587,-5.3662,-5.3722,-5.3738,-5.3753,-5.3804,-5.3823,-5.3598,-5.3598,-5.3598,0,-5.2964,-5.306,-5.3055,-5.3128,-5.3161,-5.3131,-5.3212,-5.324,-5.3298,-5.3322,-5.3289,-5.341,-5.3434,-5.3543,-5.3578,-5.3601,-5.3622,-5.3582,-5.3736,-5.3751,-5.3765,-5.3813,-5.3833,-5.3603,-5.3602,-5.3602,-5.3601,0,-5.3131,-5.3198,-5.3257,-5.3317,-5.3357,-5.3433,-5.3439,-5.348,-5.3471,-5.3481,-5.3571,-5.3599,-5.3657,-5.3682,-5.3673,-5.379,-5.3771,-5.3738,-5.3678,-5.379,-5.3835,-5.3854,-5.361,-5.3608,-5.3607,-5.3606,0,0,-5.3297,-5.3356,-5.3378,-5.3405,-5.3452,-5.3503,-5.3577,-5.3637,-5.3672,-5.3713,-5.3776,-5.3858,-5.3829,-5.386,-5.3853,-5.3905,-5.4017,-5.3866,-5.3866,-5.3894,-5.4149,-5.4175,-5.4196,-5.4001,-5.4005,-5.4007,-5.4146,0,-5.343,-5.3563,-5.3562,-5.3683,-5.3745,-5.3718,-5.3783,-5.3818,-5.383,-5.3883,-5.3895,-5.3954,-5.391,-5.3929,-5.3979,-5.3993,-5.4069,-5.3983,-5.4058,-5.4061,-5.405,-5.422,-5.4247,-5.4377,-5.4164,-5.4167,-5.4169,0,-5.3602,-5.3652,-5.3781,-5.3821,-5.3847,-5.3905,-5.396,-5.4012,-5.4051,-5.4056,-5.4092,-5.4078,-5.4153,-5.4092,-5.4194,-5.4136,-5.4167,-5.4178,-5.4183,-5.4191,-5.4122,-5.4233,-5.4418,-5.4437,-5.4197,-5.4195,-5.4193,0,-5.3712,-5.3811,-5.3902,-5.3926,-5.3974,-5.4016,-5.4038,-5.4074,-5.411,-5.4158,-5.4181,-5.4235,-5.4265,-5.4307,-5.4308,-5.4263,-5.4412,-5.4351,-5.4418,-5.4418,-5.4451,-5.4449,-5.4644,-5.4469,-5.4469,-5.4469,-5.4468,0,-5.386,-5.394,-5.3952,-5.4008,-5.4097,-5.4095,-5.4182,-5.42,-5.4232,-5.429,-5.4269,-5.4323,-5.432,-5.4375,-5.4376,-5.4461,-5.4474,-5.448,-5.4479,-5.4483,-5.4482,-5.4503,-5.4494,-5.4474,-5.4473,-5.4472,-5.4471,0,-5.3998,-5.4009,-5.4106,-5.4145,-5.4157,-5.4221,-5.4253,-5.4306,-5.4316,-5.439,-5.4407,-5.4422,-5.4486,-5.4491,-5.4564,-5.4564,-5.4668,-5.4657,-5.4656,-5.4654,-5.4721,-5.4715,-5.4937,-5.4967,-5.4772,-5.4774,-5.4776,0,-5.4093,-5.4154,-5.4201,-5.4239,-5.4264,-5.4326,-5.4364,-5.4363,-5.4403,-5.4454,-5.45,-5.4563,-5.4612,-5.4715,-5.4732,-5.4788,-5.4778,-5.4852,-5.4786,-5.4788,-5.478,-5.4777,-5.4784,-5.4865,-5.4867,-5.4869,-5.487,0,-5.4259,-5.4262,-5.4318,-5.4378,-5.4424,-5.447,-5.4512,-5.4544,-5.4549,-5.4595,-5.4661,-5.47,-5.4776,-5.4838,-5.4893,-5.4913,-5.4893,-5.4891,-5.491,-5.4914,-5.4911,-5.4915,-5.4692,-5.4886,-5.4884,-5.4883,-5.4882,-5.4882,-5.4379,-5.4433,-5.4475,-5.4539,-5.4572,-5.4612,-5.4665,-5.4682,-5.4738,-5.4802,-5.4798,-5.4871,-5.4909,-5.4982,-5.5007,-5.5063,-5.5038,-5.5065,-5.5072,-5.5079,-5.5086,-5.4902,-5.5073,-5.5072,-5.5072,-5.5072,-5.5071,0,-5.4545,-5.4572,-5.463,-5.4693,-5.4743,-5.4721,-5.4768,-5.4811,-5.4876,-5.4915,-5.4965,-5.5042,-5.5102,-5.5125,-5.5183,-5.5224,-5.5216,-5.524,-5.5237,-5.5242,-5.5105,-5.5083,-5.5245,-5.5245,-5.5245,-5.5245,-5.5245,-5.5245,-5.4638,-5.4729,-5.4738,-5.4845,-5.4869,-5.4943,-5.4972,-5.5009,-5.504,-5.5128,-5.5179,-5.5194,-5.5226,-5.5287,-5.5341,-5.5346,-5.5369,-5.5397,-5.5397,-5.5269,-5.5251,-5.5235,-5.5215,-5.5401,-5.5401,-5.553,-5.5531,-5.5532]}]]